Mount Sterling, KY

2:36 AM EST on November 20, 2019 (GMT -0500)
Mount Sterling-Montgomery County

Weather History for KIOB - October, 2019

Change the Weather History Date:

Tuesday, October 22, 2019

  Actual Average Record
Temperature  
Mean Temperature 56 °F -  
Max Temperature 62 °F 68 °F 77 °F (2015)
Min Temperature 50 °F 41 °F 32 °F (2018)
Degree Days  
Heating Degree Days 9    
Growing Degree Days 6 (Base 50)    
Moisture  
Dew Point 48 °F    
Average Humidity 72    
Maximum Humidity 100    
Minimum Humidity 42    
Precipitation  
Precipitation 0.08 in - - ()
Sea Level Pressure  
Sea Level Pressure 29.89 in    
Wind  
Wind Speed 8 mph (WSW)    
Max Wind Speed 20 mph    
Max Gust Speed 28 mph    
Visibility 10 miles    
Events Rain    
Averages and records for this station are not official NWS values.
T = Trace of Precipitation, MM = Missing Value Source: NWS Daily Summary

Daily Weather History Graph

Daily Weather History Graph

Search for Another Location

Airport or City:

Astronomy

Oct. 22, 2019 Rise Set
Actual Time 7:51 AM EDT 6:49 PM EDT
Civil Twilight 7:24 AM EDT 7:15 PM EDT
Nautical Twilight 6:53 AM EDT 7:46 PM EDT
Astronomical Twilight 6:23 AM EDT 8:16 PM EDT
Moon 1:07 AM EDT (10/22) 3:50 PM EDT (10/22)
Length of Visible Light 11h 51m
Length of Day
10h 57m
Last Quarter, 37% of the Moon is Illuminated
Oct 22
Last Quarter
Oct 27
New
Nov 4
First Quarter
Nov 12
Full
Nov 19
Last Quarter

Hourly Weather History & Observations

Time (EDT) Temp. Dew Point Humidity Pressure Visibility Wind Dir Wind Speed Gust Speed Precip Events Conditions
12:15 AM 60.8 °F 59.0 °F 94% 29.86 in 10.0 mi WSW 9.2 mph - 0.01 in   Overcast
12:35 AM 60.8 °F 59.0 °F 94% 29.86 in 10.0 mi SW 5.8 mph - 0.01 in   Overcast
12:55 AM 59.0 °F 59.0 °F 100% 29.85 in 10.0 mi SW 3.5 mph - 0.01 in   Overcast
1:35 AM 59.0 °F 59.0 °F 100% 29.85 in 10.0 mi WSW 6.9 mph - N/A   Drizzle
1:55 AM 59.0 °F 59.0 °F 100% 29.85 in 10.0 mi WSW 6.9 mph - N/A   Overcast
2:15 AM 59.0 °F 59.0 °F 100% 29.84 in 10.0 mi West 5.8 mph - N/A   Overcast
2:35 AM 59.0 °F 59.0 °F 100% 29.84 in 10.0 mi WSW 5.8 mph - N/A   Overcast
2:55 AM 59.0 °F 59.0 °F 100% 29.83 in 10.0 mi WSW 3.5 mph - N/A   Overcast
3:15 AM 59.0 °F 57.2 °F 94% 29.82 in 10.0 mi West 5.8 mph - N/A   Overcast
3:35 AM 59.0 °F 59.0 °F 100% 29.84 in 10.0 mi SW 6.9 mph - N/A   Overcast
3:55 AM 59.0 °F 57.2 °F 94% 29.82 in 10.0 mi WSW 6.9 mph - N/A   Overcast
4:15 AM 59.0 °F 57.2 °F 94% 29.85 in 10.0 mi SW 8.1 mph - N/A Rain Light Rain
4:35 AM 59.0 °F 57.2 °F 94% 29.83 in 10.0 mi WSW 6.9 mph - 0.01 in Rain Light Rain
4:55 AM 59.0 °F 57.2 °F 94% 29.85 in 10.0 mi WSW 5.8 mph - 0.02 in Rain Rain
5:15 AM 59.0 °F 57.2 °F 94% 29.83 in 10.0 mi West 3.5 mph - 0.03 in Rain Light Rain
5:35 AM 59.0 °F 57.2 °F 94% 29.84 in 10.0 mi WSW 3.5 mph - 0.03 in Rain Light Rain
5:55 AM 59.0 °F 57.2 °F 94% 29.86 in 10.0 mi SW 6.9 mph - 0.04 in   Drizzle
6:15 AM 57.2 °F 57.2 °F 100% 29.85 in 10.0 mi SW 6.9 mph - 0.01 in Rain Rain
6:35 AM 59.0 °F 57.2 °F 94% 29.85 in 10.0 mi WSW 4.6 mph - 0.01 in Rain Light Rain
6:55 AM 57.2 °F 57.2 °F 100% 29.86 in 10.0 mi WSW 5.8 mph - 0.01 in   Overcast
7:15 AM 57.2 °F 55.4 °F 94% 29.86 in 10.0 mi WSW 5.8 mph - N/A   Overcast
7:35 AM 55.4 °F 55.4 °F 100% 29.86 in 10.0 mi WSW 5.8 mph - N/A   Overcast
7:55 AM 55.4 °F 55.4 °F 100% 29.86 in 10.0 mi WSW 8.1 mph - N/A   Overcast
8:15 AM 55.4 °F 53.6 °F 94% 29.86 in 10.0 mi WSW 5.8 mph - N/A   Scattered Clouds
8:35 AM 55.4 °F 53.6 °F 94% 29.86 in 10.0 mi WSW 5.8 mph - N/A   Clear
8:55 AM 55.4 °F 53.6 °F 94% 29.87 in 10.0 mi WSW 5.8 mph - N/A   Clear
9:15 AM 55.4 °F 53.6 °F 94% 29.88 in 10.0 mi WSW 8.1 mph - N/A   Clear
9:35 AM 57.2 °F 53.6 °F 88% 29.88 in 10.0 mi SW 9.2 mph 16.1 mph N/A   Scattered Clouds
9:55 AM 59.0 °F 51.8 °F 77% 29.88 in 10.0 mi WSW 9.2 mph 16.1 mph N/A   Scattered Clouds
10:15 AM 59.0 °F 51.8 °F 77% 29.87 in 10.0 mi SW 12.7 mph - N/A   Clear
10:35 AM 59.0 °F 50.0 °F 72% 29.86 in 10.0 mi West 13.8 mph 20.7 mph N/A   Clear
10:55 AM 60.8 °F 50.0 °F 68% 29.87 in 10.0 mi West 12.7 mph 21.9 mph N/A   Scattered Clouds
11:15 AM 59.0 °F 48.2 °F 67% 29.87 in 10.0 mi WSW 13.8 mph 24.2 mph N/A   Scattered Clouds
11:35 AM 60.8 °F 50.0 °F 68% 29.88 in 10.0 mi West 18.4 mph 27.6 mph N/A   Scattered Clouds
11:55 AM 60.8 °F 44.6 °F 55% 29.88 in 10.0 mi West 10.4 mph 25.3 mph N/A   Scattered Clouds
12:15 PM 60.8 °F 44.6 °F 55% 29.88 in 10.0 mi West 13.8 mph 25.3 mph N/A   Scattered Clouds
12:35 PM 60.8 °F 44.6 °F 55% 29.88 in 10.0 mi West 12.7 mph 26.5 mph N/A   Clear
12:55 PM 60.8 °F 44.6 °F 55% 29.89 in 1.0 mi West 17.3 mph 26.5 mph N/A Rain Heavy Rain
1:15 PM 60.8 °F 44.6 °F 55% 29.88 in 10.0 mi West 16.1 mph 21.9 mph N/A   Scattered Clouds
1:35 PM 60.8 °F 44.6 °F 55% 29.88 in 10.0 mi West 13.8 mph 25.3 mph N/A   Scattered Clouds
1:55 PM 59.0 °F 42.8 °F 55% 29.88 in 10.0 mi West 19.6 mph 27.6 mph N/A   Scattered Clouds
2:15 PM 62.6 °F 42.8 °F 48% 29.87 in 10.0 mi West 17.3 mph 26.5 mph N/A   Scattered Clouds
2:35 PM 62.6 °F 42.8 °F 48% 29.87 in 10.0 mi West 16.1 mph 25.3 mph N/A   Clear
2:55 PM 62.6 °F 42.8 °F 48% 29.87 in 10.0 mi West 15.0 mph 24.2 mph N/A   Clear
3:15 PM 62.6 °F 41.0 °F 45% 29.87 in 10.0 mi West 12.7 mph 21.9 mph N/A   Clear
3:35 PM 62.6 °F 41.0 °F 45% 29.87 in 10.0 mi West 16.1 mph 26.5 mph N/A   Scattered Clouds
3:55 PM 62.6 °F 39.2 °F 42% 29.88 in 10.0 mi West 17.3 mph 26.5 mph N/A   Scattered Clouds
4:15 PM 62.6 °F 39.2 °F 42% 29.88 in 10.0 mi West 18.4 mph 26.5 mph N/A   Scattered Clouds
4:35 PM 62.6 °F 39.2 °F 42% 29.89 in 10.0 mi WSW 15.0 mph 24.2 mph N/A   Clear
4:55 PM 62.6 °F 39.2 °F 42% 29.89 in 10.0 mi West 6.9 mph 20.7 mph N/A   Clear
5:15 PM 62.6 °F 39.2 °F 42% 29.89 in 10.0 mi West 13.8 mph 20.7 mph N/A   Clear
5:35 PM 60.8 °F 37.4 °F 42% 29.89 in 10.0 mi West 11.5 mph 21.9 mph N/A   Clear
5:55 PM 60.8 °F 37.4 °F 42% 29.91 in 10.0 mi West 12.7 mph 18.4 mph N/A   Clear
6:15 PM 59.0 °F 37.4 °F 45% 29.91 in 10.0 mi West 9.2 mph 19.6 mph N/A   Clear
6:35 PM 59.0 °F 37.4 °F 45% 29.91 in 10.0 mi West 9.2 mph 16.1 mph N/A   Clear
6:55 PM 55.4 °F 37.4 °F 51% 29.92 in 10.0 mi West 5.8 mph - N/A   Clear
7:15 PM 55.4 °F 37.4 °F 51% 29.93 in 10.0 mi WSW 4.6 mph - N/A   Scattered Clouds
7:35 PM 55.4 °F 37.4 °F 51% 29.93 in 10.0 mi WSW 4.6 mph - N/A   Scattered Clouds
7:55 PM 53.6 °F 37.4 °F 54% 29.95 in 10.0 mi WSW 4.6 mph - N/A   Mostly Cloudy
8:15 PM 53.6 °F 39.2 °F 58% 29.95 in 10.0 mi WSW 4.6 mph - N/A   Mostly Cloudy
8:35 PM 51.8 °F 39.2 °F 62% 29.95 in 10.0 mi WSW 5.8 mph - N/A   Mostly Cloudy
8:55 PM 51.8 °F 39.2 °F 62% 29.95 in 10.0 mi WSW 5.8 mph - N/A   Scattered Clouds
9:15 PM 51.8 °F 41.0 °F 67% 29.96 in 10.0 mi WSW 6.9 mph - N/A   Clear
9:35 PM 51.8 °F 41.0 °F 67% 29.97 in 10.0 mi WSW 6.9 mph - N/A   Scattered Clouds
9:55 PM 51.8 °F 41.0 °F 67% 29.97 in 10.0 mi WSW 6.9 mph - N/A   Mostly Cloudy
10:15 PM 51.8 °F 41.0 °F 67% 29.98 in 10.0 mi WSW 6.9 mph - N/A   Mostly Cloudy
10:35 PM 51.8 °F 41.0 °F 67% 30.00 in 10.0 mi West 5.8 mph - N/A   Mostly Cloudy
11:15 PM 50.0 °F 41.0 °F 71% 30.01 in 10.0 mi West 6.9 mph - N/A   Scattered Clouds
11:35 PM 50.0 °F 41.0 °F 71% 30.01 in 10.0 mi West 6.9 mph - N/A   Clear
11:55 PM 50.0 °F 41.0 °F 71% 30.01 in 10.0 mi West 6.9 mph - N/A   Scattered Clouds